Weather Roundup
Issued by NWS

Home | Current Version | Previous Version | Text Only | Print | Product List | Glossary On
Versions: 1 2 3 4 5 6 7 8 9 10 11 12 13 14 15 16 17 18 19 20 21 22 23 24 25 26 27 28 29 30 31 32 33 34 35 36 37 38 39 40 41 42 43 44 45 46 47 48 49 50
552
NZUS93 KARX 050059
HRRWXR

CURRENT HOURLY OBSERVATIONS ACROSS
MUCH OF THE UPPER MISSISSIPPI VALLEY
NATIONAL WEATHER SERVICE LA CROSSE WI
800 PM CDT WED MAY 04 2016


...SOUTHEAST MINNESOTA...


CITY           SKY/WX    TMP DP  RH WIND       PRES   REMARKS
ROCHESTER      CLEAR     57  27  31 N14       29.94R
ROCHESTER/MAYO FAIR      61  25  25 NW6       29.93S
WINONA         CLEAR     61  23  23 NE9       29.93R
AUSTIN         CLEAR     57  27  30 N7        29.94R
ALBERT LEA     CLEAR     63  27  25 N14       29.94R
DODGE CENTER   CLEAR     57  27  30 N8        29.94S
PRESTON        CLEAR     56  26  32 N12       29.93R
OWATONNA       CLEAR     61  19  20 N13       29.95R
FARIBAULT      NOT AVBL
$$

...ELSEWHERE IN MINNESOTA...


CITY           SKY/WX    TMP DP  RH WIND       PRES   REMARKS
MINNEAPOLIS    PTCLDY    62  22  21 N12G20    29.95R
INTNL FALLS    CLEAR     58  17  20 NE3       29.96F
DULUTH         CLEAR     48  25  40 E8        29.97R
RED WING       CLEAR     63  19  19 N6        29.93R
REDWOOD FALLS  CLEAR     65  27  23 N9        29.97R
MANKATO        CLEAR     63  23  22 N13       29.95S
WORTHINGTON    CLEAR     61  35  37 N12       29.99R
FAIRMONT       CLEAR     64  28  25 N12       29.95R
$$

...SOUTHWEST WISCONSIN...


CITY           SKY/WX    TMP DP  RH WIND       PRES   REMARKS
LA CROSSE      CLEAR     59  25  27 N9        29.90R
PRAIRIE DU CHI CLEAR     61  22  22 N12G18    29.88R
BOSCOBEL       CLEAR     60  20  21 VRB5      29.88R
LONE ROCK      NOT AVBL
PLATTEVILLE    CLEAR     59  28  31 N13       29.86R
FORT MC COY    CLEAR     58  20  23 N12G17    29.92R
MAUSTON-NEW LI CLEAR     57  29  34 N12G20    29.89R
VIROQUA        FAIR      56  22  25 N14       29.90R
WIS DELLS      PTCLDY    57  27  31 N8G20     29.87R
$$

...ELSEWHERE IN WISCONSIN...


CITY           SKY/WX    TMP DP  RH WIND       PRES   REMARKS
MILWAUKEE      MOCLDY    41  35  79 N14G24    29.87R
MADISON        PTCLDY    52  34  50 NE16      29.87R
GREEN BAY      MOCLDY    47  34  60 N16       29.91R
EAU CLAIRE     NOT AVBL
BLACK RVR FLS  FAIR      58  17  19 N9        29.92R
MEDFORD        CLEAR     49  31  49 N12G18    29.94R
WAUSAU         CLEAR     51  31  46 VRB6      29.92R
WIS RAPIDS     CLEAR     52  29  41 NE17G23   29.94R
MARSHFIELD     CLEAR     52  30  43 N12G18    29.92R
RICE LAKE      CLEAR     59  17  19 N13       29.97R
$$

...NORTHEAST IOWA...


CITY           SKY/WX    TMP DP  RH WIND       PRES   REMARKS
WATERLOO       CLEAR     60  28  29 N14       29.90R
DUBUQUE        CLEAR     54  33  45 N9        29.87R
DECORAH        CLEAR     59  28  31 N10G18    29.89R
MASON CITY     CLEAR     60  30  32 N13       29.94R
CHARLES CITY   CLEAR     61  27  27 N13G22    29.92R
OELWEIN        CLEAR     61  30  31 N16       29.90R
$$

...ELSEWHERE IN IOWA...


CITY           SKY/WX    TMP DP  RH WIND       PRES   REMARKS
DES MOINES     CLEAR     65  30  27 N12       29.93F
IOWA CITY      CLEAR     61  31  32 N13       29.89S
FORT DODGE     CLEAR     63  36  36 NW9       29.95S
MARSHALLTOWN   CLEAR     61  33  35 N12       29.91R
CEDAR RAPIDS   CLEAR     59  34  39 N12       29.88R
$$

...NORTHERN ILLINOIS...


CITY           SKY/WX    TMP DP  RH WIND       PRES   REMARKS
CHICAGO-OHARE  CLOUDY    44  35  70 N14       29.85R
CHICAGO-MIDWAY CLOUDY    46  34  62 N15       29.85R
MOLINE         CLEAR     60  32  34 N7        29.86R
ROCKFORD       PTCLDY    53  35  50 N8        29.86R
PEORIA         CLOUDY    59  32  36 N5        29.85R
$$

NOTE: "FAIR" INDICATES FEW OR NO CLOUDS BELOW 12,000 FEET WITH NO
SIGNIFICANT WEATHER AND/OR OBSTRUCTIONS TO VISIBILITY. WIND
SPEEDS ARE IN MILES-PER-HOUR.




USA.gov is the U.S. government's official web portal to all federal, state and local government web resources and services.